Overview Statistics Trail Chart Weather Telemetry Raw packets
 

This is the latest recevied weather packets stored in our database for station/object W5GMO. If no packets are shown the sender has not sent any weather packets the latest 10 day(s).

<< 42 43 44 45 46 47 48 >>
Time Temp. Humidity Pressure Rain* Wind** Luminosity Snow
1788352333 27.22° C 1% 1018.2 hPa 0 mm - 113 W/m² -
1788352032 26.67° C 1% 1018 hPa 0 mm - 175 W/m² -
1788351728 26.67° C 1% 1018.2 hPa 0 mm - 98 W/m² -
1788351427 26.67° C 1% 1018.2 hPa 0 mm - 176 W/m² -
1788351122 26.11° C 1% 1018.1 hPa 0 mm - 151 W/m² -
1788350818 26.11° C 1% 1018.3 hPa 0 mm - 101 W/m² -
1788350514 25.56° C 1% 1018.2 hPa 0 mm - 58 W/m² -
1788350214 25.56° C 1% 1018.1 hPa 0 mm - 47 W/m² -
1788349910 25.56° C 1% 1018 hPa 0 mm - 47 W/m² -
1788349606 25.56° C 1% 1018 hPa 0 mm - 45 W/m² -
1788349301 25.56° C 1% 1017.9 hPa 0 mm - 42 W/m² -
1788348997 25.56° C 1% 1017.9 hPa 0 mm - 37 W/m² -
1788348691 25.56° C 1% 1017.9 hPa 0 mm - 30 W/m² -
1788348386 25.56° C 1% 1018 hPa 0 mm - 25 W/m² -
1788348084 25.56° C 1% 1018.1 hPa 0 mm - 22 W/m² -
1788347779 25.56° C 1% 1018.1 hPa 0 mm - 22 W/m² -
1788347475 25.56° C 1% 1018 hPa 0 mm - 23 W/m² -
1788347171 25.56° C 1% 1018 hPa 0 mm - 22 W/m² -
1788346867 25.56° C 1% 1018.2 hPa 0 mm - 20 W/m² -
1788346561 25° C 1% 1018.1 hPa 0 mm - 15 W/m² -
1788346260 25° C 1% 1018 hPa 0 mm - 10 W/m² -
1788345957 25° C 1% 1018 hPa 0 mm - 5 W/m² -
1788345651 25° C 1% 1018 hPa 0 mm - 3 W/m² -
1788345346 25° C 1% 1017.8 hPa 0 mm - 2 W/m² -
1788345041 25° C 1% 1018.1 hPa 0 mm - 1 W/m² -

* Rain latest hour (hover to see other rain measurements)
** Current wind speed in m/s (hover to see current wind gust speed)